Weather History for Bonaire, Bonaire

Change the Weather History Date:

Wednesday, September 3, 2014

  Actual Average Record
Temperature  
Mean Temperature 86 °F -  
Max Temperature 91 °F 89 °F 96 °F (2008)
Min Temperature 82 °F 82 °F 75 °F (2013)
Cooling Degree Days 22    
Growing Degree Days 36 (Base 50)    
Moisture  
Dew Point 76 °F    
Average Humidity 75    
Maximum Humidity 84    
Minimum Humidity 63    
Precipitation  
Precipitation 0.00 in - - ()
Sea Level Pressure  
Sea Level Pressure 29.87 in    
Wind  
Wind Speed 17 mph ()    
Max Wind Speed 24 mph    
Max Gust Speed -    
Visibility 6.2 miles    
Events      
Averages and records for this station are not official NWS values.
T = Trace of Precipitation, MM = Missing Value Source: Averaged Metar Reports

Daily Weather History Graph

Daily Weather History Graph

Search for Another Location

Airport:

Trip Planner

Search our weather history database for the weather conditions in past years. The results will help you decide how hot, cold, wet, or windy it might be!

Date:

Astronomy

Sep. 03, 2014 Rise Set
Actual Time 6:22 AM AST 6:42 PM AST
Civil Twilight 6:01 AM AST 7:03 PM AST
Nautical Twilight 5:36 AM AST 7:28 PM AST
Astronomical Twilight 5:11 AM AST 7:53 PM AST
Moon 1:48 PM AST (9/3) 12:44 AM AST (9/3)
Length of Visible Light 13h 02m
Length of Day
12h 19m
Waxing Gibbous, 63% of the Moon is Illuminated
Sep 3
Waxing Gibbous
Sep 8
Full
Sep 15
Last Quarter
Sep 24
New
Oct 1
First Quarter

Hourly Weather History & Observations

Time (AST) Temp. Heat Index Dew Point Humidity Pressure Visibility Wind Dir Wind Speed Gust Speed Precip Events Conditions
12:00 AM 82.4 °F 89.5 °F 75.2 °F 79% 29.89 in - ENE 18.4 mph - N/A   Unknown
1:00 AM 82.4 °F 89.5 °F 75.2 °F 79% 29.89 in - ENE 17.3 mph - N/A   Unknown
2:00 AM 82.4 °F 89.5 °F 75.2 °F 79% 29.83 in - NE 17.3 mph - N/A   Unknown
3:00 AM 82.4 °F 89.5 °F 75.2 °F 79% 29.83 in - ENE 19.6 mph - N/A   Unknown
4:00 AM 82.4 °F 89.5 °F 75.2 °F 79% 29.83 in - ENE 19.6 mph - N/A   Unknown
5:00 AM 82.4 °F 89.5 °F 75.2 °F 79% 29.83 in - ENE 18.4 mph - N/A   Unknown
6:00 AM 82.4 °F 89.5 °F 75.2 °F 79% 29.86 in - ENE 18.4 mph - N/A   Unknown
7:00 AM 82.4 °F 89.5 °F 75.2 °F 79% 29.86 in - ENE 17.3 mph - N/A   Unknown
8:00 AM 84.2 °F 94.1 °F 77.0 °F 79% 29.89 in - ENE 18.4 mph - N/A   Unknown
9:00 AM 86.0 °F 95.1 °F 75.2 °F 70% 29.89 in 6.2 mi ENE 19.6 mph - N/A   Scattered Clouds
10:00 AM 87.8 °F 99.7 °F 77.0 °F 70% 29.92 in - ENE 21.9 mph - N/A   Unknown
11:00 AM 87.8 °F 99.7 °F 77.0 °F 70% 29.92 in 6.2 mi ENE 23.0 mph - N/A   Mostly Cloudy
12:00 PM 89.6 °F 102.2 °F 77.0 °F 66% 29.92 in 6.2 mi ENE 23.0 mph - N/A   Mostly Cloudy
1:00 PM 91.4 °F 105.1 °F 77.0 °F 63% 29.89 in 6.2 mi ENE 20.7 mph - N/A   Scattered Clouds
2:00 PM 86.0 °F 95.1 °F 75.2 °F 70% 29.86 in - ENE 24.2 mph - N/A   Unknown
3:00 PM 87.8 °F 99.7 °F 77.0 °F 70% 29.86 in 6.2 mi ENE 23.0 mph - N/A   Scattered Clouds
4:00 PM 87.8 °F 99.7 °F 77.0 °F 70% 29.83 in 6.2 mi ENE 24.2 mph - N/A   Scattered Clouds
5:00 PM 86.0 °F 95.1 °F 75.2 °F 70% 29.83 in 6.2 mi ENE 21.9 mph - N/A   Scattered Clouds
6:00 PM 86.0 °F 95.1 °F 75.2 °F 70% 29.83 in 6.2 mi ENE 23.0 mph - N/A   Scattered Clouds
7:00 PM 84.2 °F 92.3 °F 75.2 °F 74% 29.86 in - ENE 19.6 mph - N/A   Unknown
8:00 PM 84.2 °F 94.1 °F 77.0 °F 79% 29.89 in - ENE 16.1 mph - N/A   Unknown
9:00 PM 84.2 °F 94.1 °F 77.0 °F 79% 29.89 in - East 16.1 mph - N/A   Unknown
10:00 PM 82.4 °F 90.9 °F 77.0 °F 84% 29.92 in - ENE 13.8 mph - N/A   Unknown
11:00 PM 82.4 °F 90.9 °F 77.0 °F 84% 29.92 in - ENE 12.7 mph - N/A   Unknown